DW0841 Weather Reports


Display with metric or nautical units.
time (UTC)temp
F
wind
direction
speed
MPH
gust
MPH
rain 1hr
in
rain 24hr
in
rain mn
in
humidity
%
barometer
mb
20260510100237 48 0.0 0.0 0.00 0.00 0.00 90 1030.9
20260510095217 48 0.0 0.0 0.00 0.00 0.00 90 1030.7
20260510094217 48 0.0 0.0 0.00 0.00 0.00 90 1030.7
20260510093217 49 0.0 0.0 0.00 0.00 0.00 89 1030.7
20260510092237 49 0.0 0.0 0.00 0.00 0.00 89 1030.7
20260510091217 49 0.0 0.0 0.00 0.00 0.00 89 1030.6
20260510090237 49 0.0 0.0 0.00 0.00 0.00 88 1030.5
20260510085216 50 0.0 0.0 0.00 0.00 0.00 88 1030.3
20260510084216 50 0.0 0.0 0.00 0.00 0.00 87 1030.2
20260510083216 50 0.0 0.0 0.00 0.00 0.00 87 1030.0
20260510082217 51 0.0 0.0 0.00 0.00 0.00 86 1029.9
20260510081216 51 0.0 1.0 0.00 0.00 0.00 86 1029.8
20260510080217 52 0.0 1.0 0.00 0.00 0.00 84 1029.7
20260510075217 52 0.0 1.0 0.00 0.00 0.00 84 1029.5
20260510074218 53 0.0 1.0 0.00 0.00 0.00 83 1029.3
20260510073217 54 0.0 0.0 0.00 0.00 0.00 83 1029.2
20260510072216 55 0.0 0.0 0.00 0.00 0.00 82 1029.2
20260510071216 56 0.0 0.0 0.00 0.00 0.00 78 1029.1
20260510070217 58 0.0 0.0 0.00 0.00 0.00 75 1029.0
20260510065238 59 0.0 0.0 0.00 0.00 0.00 72 1029.0
20260510064237 60 0.0 0.0 0.00 0.00 0.00 70 1028.9
20260510063236 62 0.0 0.0 0.00 0.00 0.00 66 1028.7
20260510062216 64 0.0 0.0 0.00 0.00 0.00 62 1028.6
20260510061216 65 0.0 0.0 0.00 0.00 0.00 61 1028.5
20260510060217 65 180 1.0 2.0 0.00 0.00 0.00 61 1028.5
20260510055217 65 113 1.0 2.0 0.00 0.00 0.00 61 1028.4
20260510054216 67 113 2.0 3.0 0.00 0.00 0.00 60 1028.4
20260510053216 67 0.0 0.0 0.00 0.00 0.00 60 1028.3
20260510052237 67 0.0 0.0 0.00 0.00 0.00 60 1028.1
20260510051217 66 0.0 0.0 0.00 0.00 0.00 62 1028.2
20260510050217 66 0.0 0.0 0.00 0.00 0.00 63 1028.2
20260510045216 66 0.0 0.0 0.00 0.00 0.00 64 1028.2
20260510044216 66 0.0 0.0 0.00 0.00 0.00 63 1028.2
20260510043236 66 0.0 0.0 0.00 0.00 0.00 64 1028.2
20260510042216 66 0.0 1.0 0.00 0.00 0.00 64 1028.1
20260510041216 65 180 1.0 2.0 0.00 0.00 0.00 66 1028.2
20260510040216 65 0.0 1.0 0.00 0.00 0.00 66 1028.2
20260510035216 65 0.0 1.0 0.00 0.00 0.00 65 1028.2
20260510034216 65 203 1.0 2.0 0.00 0.00 0.00 65 1028.1
20260510033216 65 203 1.0 2.0 0.00 0.00 0.00 64 1028.1
20260510032216 65 203 1.0 1.0 0.00 0.00 0.00 64 1028.1
20260510031216 65 0.0 2.0 0.00 0.00 0.00 64 1028.0
20260510030217 65 225 1.0 2.0 0.00 0.00 0.00 64 1028.2
20260510025216 65 0.0 0.0 0.00 0.00 0.00 64 1028.1
20260510024216 66 225 1.0 2.0 0.00 0.00 0.00 65 1028.3
20260510023236 65 0.0 1.0 0.00 0.00 0.00 65 1028.3
20260510022216 65 0.0 0.0 0.00 0.00 0.00 66 1028.4
20260510021216 64 0.0 0.0 0.00 0.00 0.00 69 1028.5
20260510020216 63 0.0 1.0 0.00 0.00 0.00 70 1028.6
20260510015216 62 0.0 0.0 0.00 0.00 0.00 70 1028.6
20260510014216 62 0.0 0.0 0.00 0.00 0.00 70 1028.6
20260510013216 61 0.0 0.0 0.00 0.00 0.00 70 1028.6
20260510012216 61 0.0 2.0 0.00 0.00 0.00 71 1028.6
20260510011236 60 0.0 0.0 0.00 0.00 0.00 71 1028.6
20260510010216 60 0.0 0.0 0.00 0.00 0.00 74 1028.8
20260510005216 59 0.0 0.0 0.00 0.00 0.00 75 1028.8
20260510004237 59 113 1.0 3.0 0.00 0.00 0.00 76 1028.7
20260510003216 58 0.0 0.0 0.00 0.00 0.00 76 1028.6
20260510002216 58 0.0 0.0 0.00 0.00 0.00 76 1028.7
20260510001216 58 0.0 0.0 0.00 0.00 0.00 77 1028.7
20260510000218 58 0.0 0.0 0.00 0.00 0.00 80 1028.6
20260509235237 57 0.0 0.0 0.00 0.00 0.00 84 1028.5
20260509234236 55 0.0 0.0 0.00 0.00 0.00 86 1028.5
20260509233216 54 0.0 0.0 0.00 0.00 0.00 89 1028.4
20260509232216 53 0.0 0.0 0.00 0.00 0.00 91 1028.2
20260509231216 52 0.0 0.0 0.00 0.00 0.00 92 1028.1
20260509230216 50 0.0 0.0 0.00 0.00 0.00 92 1028.0
20260509225216 49 0.0 0.0 0.00 0.00 0.00 92 1027.9
20260509224257 48 0.0 0.0 0.00 0.00 0.00 92 1027.7
20260509223216 46 0.0 1.0 0.00 0.00 0.00 92 1027.5
20260509222216 46 0.0 0.0 0.00 0.00 0.00 92 1027.3
20260509221237 46 0.0 0.0 0.00 0.00 0.00 92 1027.3
20260509220216 46 315 1.0 2.0 0.00 0.00 0.00 92 1027.2
20260509215216 46 0.0 1.0 0.00 0.00 0.00 92 1027.2
20260509214216 46 315 1.0 2.0 0.00 0.00 0.00 92 1027.0
20260509213216 46 0 2.0 3.0 0.00 0.00 0.00 92 1026.8
20260509212216 46 0.0 1.0 0.00 0.00 0.00 92 1026.6
20260509211216 46 338 2.0 2.0 0.00 0.00 0.00 92 1026.4
20260509210217 46 315 1.0 2.0 0.00 0.00 0.00 92 1026.4
20260509205216 46 0.0 2.0 0.00 0.00 0.00 92 1026.3
20260509204216 45 315 2.0 4.0 0.00 0.00 0.00 92 1026.3
20260509203216 45 0 1.0 2.0 0.00 0.00 0.00 92 1026.2
20260509202237 45 315 2.0 3.0 0.00 0.00 0.00 91 1025.9
20260509201216 46 0.0 1.0 0.00 0.00 0.00 92 1025.9
20260509200217 45 338 1.0 2.0 0.00 0.00 0.00 91 1025.7
20260509195216 46 338 1.0 2.0 0.00 0.00 0.00 91 1025.6
20260509194236 46 0.0 1.0 0.00 0.00 0.00 91 1025.5
20260509193216 46 0 2.0 3.0 0.00 0.00 0.00 91 1025.3
20260509192216 46 0.0 1.0 0.00 0.00 0.00 91 1025.2
20260509191216 46 315 1.0 2.0 0.00 0.00 0.00 91 1025.1
20260509190216 46 315 2.0 5.0 0.00 0.00 0.00 91 1025.0
20260509185216 46 0 1.0 3.0 0.00 0.00 0.00 91 1024.9
20260509184217 47 0 1.0 2.0 0.00 0.00 0.00 91 1024.9
20260509183218 47 0 1.0 3.0 0.00 0.00 0.00 91 1025.0
20260509182218 46 0 1.0 2.0 0.00 0.00 0.00 91 1024.9
20260509181216 46 0 2.0 3.0 0.00 0.00 0.00 90 1024.6
20260509180218 47 0 2.0 3.0 0.00 0.00 0.00 90 1024.5
20260509175219 47 338 2.0 2.0 0.00 0.00 0.00 90 1024.4
20260509174238 47 23 2.0 3.0 0.00 0.00 0.00 90 1024.3
20260509173218 47 23 2.0 2.0 0.00 0.00 0.00 90 1024.2
20260509172218 47 315 1.0 2.0 0.00 0.00 0.00 90 1024.2
20260509171238 47 45 2.0 2.0 0.00 0.00 0.00 90 1024.1
20260509170218 47 338 1.0 2.0 0.00 0.00 0.00 90 1024.2
20260509165218 47 338 1.0 2.0 0.00 0.00 0.00 89 1024.1
20260509164242 47 0 3.0 4.0 0.00 0.00 0.00 89 1024.0
20260509163717 47 23 2.0 3.0 0.00 0.00 0.00 89 1024.0
20260509162717 47 0 1.0 2.0 0.00 0.00 0.00 88 1023.9
20260509161717 48 0.0 0.0 0.00 0.00 0.00 88 1023.7
20260509160717 48 0 1.0 3.0 0.00 0.00 0.00 88 1023.5
20260509155718 48 0 1.0 2.0 0.00 0.00 0.00 87 1023.6
20260509154717 48 0.0 1.0 0.00 0.00 0.00 87 1023.4
20260509153717 49 0 1.0 3.0 0.00 0.00 0.00 87 1023.2
20260509152717 48 0 2.0 3.0 0.00 0.00 0.00 86 1023.2
20260509151717 49 315 1.0 3.0 0.00 0.00 0.00 85 1023.2
20260509150717 49 0 2.0 3.0 0.00 0.00 0.00 85 1023.0
20260509145717 50 45 2.0 3.0 0.00 0.00 0.00 85 1023.0
20260509144717 50 338 2.0 3.0 0.00 0.00 0.00 85 1023.1
20260509143717 49 270 3.0 4.0 0.00 0.00 0.00 85 1023.1
20260509142718 49 0 1.0 2.0 0.00 0.00 0.00 84 1022.8
20260509141717 50 338 1.0 2.0 0.00 0.00 0.00 82 1022.7
20260509140737 51 68 6.0 9.0 0.00 0.00 0.00 81 1022.7
20260509135736 51 45 1.0 2.0 0.00 0.00 0.00 78 1022.6
20260509134737 54 338 1.0 2.0 0.00 0.00 0.00 75 1022.5
20260509133716 55 113 2.0 4.0 0.00 0.00 0.00 79 1022.5
20260509132716 53 315 1.0 3.0 0.00 0.00 0.00 81 1022.6
20260509131717 51 90 3.0 6.0 0.00 0.00 0.00 80 1022.6
20260509130736 52 23 3.0 5.0 0.00 0.00 0.00 78 1022.3
20260509125736 53 338 2.0 4.0 0.00 0.00 0.00 75 1022.5
20260509124716 55 0.0 2.0 0.00 0.00 0.00 72 1022.4
20260509123716 56 45 1.0 2.0 0.00 0.00 0.00 73 1022.5
20260509122717 56 180 2.0 4.0 0.00 0.00 0.00 73 1022.6
20260509121716 56 68 2.0 5.0 0.00 0.00 0.00 73 1022.7
20260509120736 56 113 3.0 8.0 0.00 0.00 0.00 73 1022.6
20260509115716 56 135 2.0 4.0 0.00 0.00 0.00 72 1022.6
20260509114716 56 203 4.0 10.0 0.00 0.00 0.00 71 1022.6
20260509113716 56 158 4.0 8.0 0.00 0.00 0.00 71 1022.6
20260509112716 56 158 3.0 4.0 0.00 0.00 0.00 70 1022.3
20260509111737 57 135 2.0 4.0 0.00 0.00 0.00 69 1022.0
20260509110716 57 135 2.0 3.0 0.00 0.00 0.00 68 1021.8
20260509105736 57 135 1.0 3.0 0.00 0.00 0.00 67 1021.6
20260509104716 58 248 6.0 12.0 0.00 0.00 0.00 66 1021.5
20260509103736 57 225 3.0 4.0 0.00 0.00 0.00 66 1021.5
20260509102716 57 225 3.0 6.0 0.00 0.00 0.00 67 1021.6
20260509101716 57 315 3.0 6.0 0.00 0.00 0.00 68 1021.4